Andover, NJ

10:41 PM EST on December 14, 2019 (GMT -0500)
Andover

Weather History for K12N - September, 2019

Change the Weather History Date:

Saturday, September 28, 2019

  Actual Average (WUND) Record (WUND)
Temperature  
Mean Temperature 68 °F -  
Max Temperature 82 °F - - (-1)
Min Temperature 54 °F - - (-1)
Cooling Degree Days 2    
Growing Degree Days 18 (Base 50)    
Moisture  
Dew Point 62 °F    
Average Humidity 86    
Maximum Humidity 100    
Minimum Humidity 64    
Precipitation  
Precipitation 0.00 in - - ()
Sea Level Pressure  
Sea Level Pressure 30.09 in    
Wind  
Wind Speed 2 mph (SSW)    
Max Wind Speed 8 mph    
Max Gust Speed -    
Averages and records for this station are not official NWS values.
T = Trace of Precipitation, MM = Missing Value Source: NWS Daily Summary

Daily Weather History Graph

Daily Weather History Graph

Search for Another Location

Airport or City:

Astronomy

Sep. 28, 2019 Rise Set
Actual Time 6:52 AM EDT 6:46 PM EDT
Civil Twilight 6:24 AM EDT 7:13 PM EDT
Nautical Twilight 5:52 AM EDT 7:45 PM EDT
Astronomical Twilight 5:20 AM EDT 8:17 PM EDT
Moon 6:24 AM EDT (9/28) 7:11 PM EDT (9/28)
Length of Visible Light 12h 48m
Length of Day
11h 54m
Waning Crescent, 0% of the Moon is Illuminated
Sep 28
Waning Crescent
Sep 28
New
Oct 5
First Quarter
Oct 13
Full
Oct 21
Last Quarter

Hourly Weather History & Observations

Time (EDT) Temp. Heat Index Dew Point Humidity Pressure Visibility Wind Dir Wind Speed Gust Speed Precip Events Conditions
12:54 AM 57.0 °F - 55.9 °F 96% 30.11 in - Calm Calm - N/A   Unknown
1:54 AM 55.0 °F - 55.0 °F 100% 30.11 in - Calm Calm - N/A   Unknown
2:54 AM 55.0 °F - 54.0 °F 96% 30.10 in - Calm Calm - N/A   Unknown
3:54 AM 55.0 °F - 54.0 °F 96% 30.09 in - Calm Calm - N/A   Unknown
4:54 AM 55.0 °F - 53.1 °F 93% 30.10 in - Calm Calm - N/A   Unknown
5:54 AM 54.0 °F - 53.1 °F 97% 30.12 in - Calm Calm - N/A   Unknown
6:54 AM 54.0 °F - 53.1 °F 97% 30.12 in - Calm Calm - N/A   Unknown
8:54 AM 64.0 °F - 61.0 °F 90% 30.13 in - SSW 5.8 mph - N/A   Unknown
9:54 AM 66.9 °F - 60.1 °F 79% 30.12 in - SSW 4.6 mph - N/A   Unknown
10:54 AM 71.1 °F - 61.0 °F 70% 30.10 in - Variable 6.9 mph - N/A   Unknown
11:54 AM 71.1 °F - 63.0 °F 75% 30.11 in - SW 6.9 mph - N/A   Unknown
12:54 PM 72.0 °F - 64.9 °F 78% 30.10 in - Variable 6.9 mph - N/A   Unknown
1:54 PM 78.1 °F - 66.0 °F 66% 30.05 in - SSW 6.9 mph - N/A   Unknown
2:54 PM 80.1 °F 82.3 °F 66.9 °F 64% 30.04 in - South 8.1 mph - N/A   Unknown
3:54 PM 81.0 °F 83.8 °F 68.0 °F 65% 30.03 in - Variable 4.6 mph - N/A   Unknown
4:54 PM 80.1 °F 82.7 °F 68.0 °F 67% 30.03 in - Variable 5.8 mph - N/A   Unknown
5:54 PM 79.0 °F - 69.1 °F 72% 30.04 in - SSW 4.6 mph - N/A   Unknown
6:54 PM 73.0 °F - 69.1 °F 87% 30.06 in - Calm Calm - N/A   Unknown
7:54 PM 69.1 °F - 68.0 °F 96% 30.07 in - Calm Calm - N/A   Unknown
8:54 PM 68.0 °F - 66.9 °F 96% 30.07 in - Calm Calm - N/A   Unknown
9:54 PM 66.9 °F - 66.0 °F 97% 30.09 in - Calm Calm - N/A   Unknown
10:54 PM 66.9 °F - 66.0 °F 97% 30.10 in - SSW 3.5 mph - N/A   Unknown
11:54 PM 64.9 °F - 64.0 °F 97% 30.09 in - Calm Calm - N/A   Unknown